Regional Weather Roundup
Issued by NWS

Home | Current Version | Previous Version | Graphics & Text | Print | Product List | Glossary On
Versions: 1 2 3 4 5 6 7 8 9 10 11 12 13 14 15 16 17 18 19 20 21 22 23 24 25 26 27
000
ASUS45 KSLC 192210
RWRUT

UTAH REGIONAL WEATHER ROUNDUP
NATIONAL WEATHER SERVICE SALT LAKE CITY UT
300 PM MST FRI JAN 19 2018

UTZ001>011-023>025-192300-

NORTHERN UTAH

CITY           SKY/WX    TMP DP  RH WIND       PRES   REMARKS
BRIGHAM CITY   CLOUDY    38  33  83 N25G31    29.84R WCI  27
HILL AFB       LGT RAIN  40  34  78 NW12      29.80R WCI  34
LOGAN          LGT SNOW  36  32  85 NW8       29.85R WCI  30
OGDEN          LGT RAIN  42  34  73 N12       29.79R
SALT LAKE CITY CLOUDY    49  33  54 NW9       29.78S
TOOELE VALLEY  CLOUDY    41  34  75 N10       29.83R
WENDOVER       LGT RAIN  39  27  62 NW28G33   29.85R WCI  28
HEBER CITY       N/A     50  27  40 SW18G26   29.76F
WEST JORDAN    CLOUDY    44  32  62 NW15G33   29.79R

$$

UTZ011>015-024>027-192300-

CENTRAL/NORTHEAST UTAH

CITY           SKY/WX    TMP DP  RH WIND       PRES   REMARKS
PROVO AIRPORT  CLOUDY    52  30  43 S13       29.78F
MOAB/CANYONLAN CLOUDY    42  24  49 CALM      29.88F
DELTA          CLOUDY    52  28  40 SW14      29.79S
PRICE          PTSUNNY   42  20  41 SE6       29.90F
RICHFIELD      SUNNY     59  21  23 SW18G32   29.78F
ROOSEVELT      PTSUNNY   39  19  45 CALM      29.87F
VERNAL         PTSUNNY   39  17  41 E3        29.85F

$$

UTZ013>016-019>022-027-192300-

SOUTHERN UTAH

CITY           SKY/WX    TMP DP  RH WIND       PRES   REMARKS
BRYCE CANYON   MOSUNNY   51  27  39 S15G22    29.94F
CEDAR CITY     PTSUNNY   59  27  29 SW23G33   29.84F
MILFORD        CLOUDY    56  28  34 SW25G39   29.81S
ST GEORGE      CLOUDY    65  33  30 NW6       29.84F
HANKSVILLE     PTSUNNY   50  21  32 N7        29.89F
KANAB          SUNNY     61  25  25 S12G17    29.93F
BLANDING         N/A     51  17  26 SW3       30.04F

$$

REGIONAL REPORTS     COLORADO/ARIZONA

CITY           SKY/WX    TMP DP  RH WIND       PRES   REMARKS
CRAIG, CO      MOSUNNY   49  23  36 SW12      29.82F
GRAND JUNCTION PTSUNNY   48  21  34 W3        29.89F
RIFLE, CO      PTSUNNY   50  20  30 NE3       29.88F
MONTROSE, CO   MOSUNNY   48  20  32 SE5       29.92F
CORTEZ, CO     SUNNY     58  19  22 SW13      29.98F
COLORADO CITY    N/A     61  28  29 SW10      29.92F
PAGE, AZ       SUNNY     54  23  30 NE3       29.90F
GRAND CANYON   SUNNY     54  22  28 SW21G31   29.99F
KINGMAN, AZ    SUNNY     67  28  23 S22       29.90F
FLAGSTAFF, AZ  SUNNY     50  19  29 SW17      30.04F

$$

REGIONAL REPORTS    NEVADA/IDAHO/WYOMING

CITY           SKY/WX    TMP DP  RH WIND       PRES   REMARKS
LAS VEGAS, NV  PTSUNNY   70  33  25 SW17G23   29.79F
ELY, NY        LGT RAIN  45  27  49 S17G30    29.80S
ELKO, NV       CLOUDY    32  28  85 S7        29.93S WCI  26
POCATELLO, ID  CLOUDY    36  33  89 SW24      29.89R WCI  24
BURLEY, ID     CLOUDY    37  30  75 SW12      29.91R WCI  29
FORT BRIDGER,    N/A     45  28  52 W28G37    29.78S
EVANSTON, WY   CLOUDY    39  31  72 W20       29.76F WCI  29
ROCK SPRINGS,  CLOUDY    49  21  33 SW12      29.74R

$$




USA.gov is the U.S. government's official web portal to all federal, state and local government web resources and services.